Date String (YYYY-MM-DD hh:mm:ss) UTC,Instrument flags,Ambient pressure (hPa),Sample flow (lpm),Bypass flow (lpm),Sample temperature (°C),Ambient temperature (°C),ASC tube jacket temperature (°C),LED temperature (°C),Box temperature (°C),Sample RH (%),Span deviation,Mass concentration (μg/m³),Mass concentration (μg/m³),Mass concentration (μg/m³)
DateTimeUTC,F1_M11,P_M11,Q1_M11,Q2_M11,T1_M11,T2_M11,T3_M11,T4_M11,T5_M11,U1_M11,ZSPAN_M11,X0_M11,X2_M11,X1_M11
2022-09-30 06:00:00,,0827.5,5.00,0.00,30.5,29.3,00.0,39.2,32.4,16.1,0000.0,0005.91,0003.07,0002.66
2022-09-30 06:01:00,,0827.5,5.00,0.00,30.5,29.3,00.0,39.2,32.4,16.1,0000.0,0005.90,0003.06,0002.65
2022-09-30 06:02:00,,0827.6,4.99,0.00,30.5,29.3,00.0,39.3,32.4,16.1,0000.0,0005.73,0003.05,0002.64
2022-09-30 06:03:00,,0827.5,5.01,0.00,30.6,29.3,00.0,39.3,32.4,16.2,0000.0,0005.17,0003.11,0002.65
2022-09-30 06:04:00,,0827.5,4.99,0.00,30.6,29.3,00.0,39.3,32.4,16.2,0000.0,0005.16,0003.11,0002.65
2022-09-30 06:05:00,,0827.6,5.01,0.00,30.6,29.2,00.0,39.3,32.4,16.2,0000.0,0005.29,0003.14,0002.65
2022-09-30 06:06:00,,0827.5,5.00,0.00,30.6,27.8,00.0,39.3,32.3,16.1,0000.0,0005.41,0003.14,0002.63
2022-09-30 06:07:00,,0827.5,5.00,0.00,30.5,26.8,00.0,39.2,32.2,16.2,0000.0,0005.54,0003.15,0002.62
2022-09-30 06:08:00,,0827.5,5.01,0.00,30.4,26.8,00.0,39.1,32.1,16.3,0000.0,0005.49,0003.15,0002.62
2022-09-30 06:09:00,,0827.5,4.99,0.00,30.3,27.0,00.0,39.1,31.9,16.7,0000.0,0004.77,0003.16,0002.64
2022-09-30 06:10:00,,0827.5,5.00,0.00,30.2,27.3,00.0,39.1,31.9,16.6,0000.0,0004.50,0003.16,0002.64
2022-09-30 06:11:00,,0827.5,5.00,0.00,30.2,27.6,00.0,39.0,31.9,16.6,0000.0,0004.59,0003.19,0002.66
2022-09-30 06:12:00,,0827.5,4.98,0.00,30.2,27.9,00.0,39.0,31.9,17.0,0000.0,0004.68,0003.23,0002.70
2022-09-30 06:13:00,,0827.4,5.00,0.00,30.1,28.1,00.0,39.0,31.9,16.8,0000.0,0004.78,0003.24,0002.71
2022-09-30 06:14:00,,0827.4,5.01,0.00,30.1,28.2,00.0,39.0,31.9,16.8,0000.0,0004.67,0003.24,0002.72
2022-09-30 06:15:00,,0827.4,5.00,0.00,30.1,28.3,00.0,39.0,31.9,17.0,0000.0,0005.16,0003.25,0002.74
2022-09-30 06:16:00,,0827.4,5.00,0.00,30.1,28.5,00.0,38.9,31.9,17.2,0000.0,0005.41,0003.27,0002.77
2022-09-30 06:17:00,,0827.4,5.01,0.00,30.1,28.5,00.0,38.9,31.9,17.1,0000.0,0005.41,0003.29,0002.82
2022-09-30 06:18:00,,0827.4,4.99,0.00,30.1,28.6,00.0,38.9,31.9,17.0,0000.0,0005.88,0003.33,0002.84
2022-09-30 06:19:00,,0827.4,5.01,0.00,30.1,28.6,00.0,38.9,32.0,17.4,0000.0,0006.09,0003.37,0002.88
2022-09-30 06:20:00,,0827.4,4.99,0.00,30.1,28.7,00.0,38.9,32.0,18.0,0000.0,0006.66,0003.43,0002.92
2022-09-30 06:21:00,,0827.4,5.01,0.00,30.1,28.8,00.0,38.9,32.0,18.4,0000.0,0007.12,0003.51,0002.98
2022-09-30 06:22:00,,0827.4,5.00,0.00,30.2,28.8,00.0,38.9,32.0,17.8,0000.0,0007.08,0003.52,0003.04
2022-09-30 06:23:00,,0827.4,5.00,0.00,30.2,28.8,00.0,38.9,32.0,17.8,0000.0,0007.18,0003.55,0003.07
2022-09-30 06:24:00,,0827.4,5.00,0.00,30.2,28.9,00.0,38.9,32.0,17.8,0000.0,0007.42,0003.59,0003.12
2022-09-30 06:25:00,,0827.5,4.99,0.00,30.2,28.9,00.0,39.0,32.0,18.0,0000.0,0007.51,0003.63,0003.15
2022-09-30 06:26:00,,0827.4,5.01,0.00,30.2,28.9,00.0,39.0,32.0,18.2,0000.0,0007.46,0003.71,0003.18
2022-09-30 06:27:00,,0827.4,5.00,0.00,30.2,29.0,00.0,39.0,32.1,18.2,0000.0,0007.52,0003.74,0003.21
2022-09-30 06:28:00,,0827.4,4.99,0.00,30.3,29.0,00.0,39.0,32.1,18.4,0000.0,0007.73,0003.81,0003.24
2022-09-30 06:29:00,,0827.4,5.01,0.00,30.3,29.0,00.0,39.0,32.1,18.1,0000.0,0007.66,0003.85,0003.28
2022-09-30 06:30:00,,0827.4,4.99,0.00,30.3,29.0,00.0,39.0,32.1,17.9,0000.0,0007.73,0003.89,0003.30
2022-09-30 06:31:00,,0827.4,5.00,0.00,30.3,29.1,00.0,39.0,32.1,18.0,0000.0,0007.72,0003.88,0003.31
2022-09-30 06:32:00,,0827.4,5.00,0.00,30.3,29.1,00.0,39.0,32.2,18.2,0000.0,0008.00,0003.92,0003.32
2022-09-30 06:33:00,,0827.3,4.99,0.00,30.3,29.1,00.0,39.0,32.2,18.3,0000.0,0008.93,0004.01,0003.36
2022-09-30 06:34:00,,0827.4,5.00,0.00,30.4,29.1,00.0,39.1,32.2,18.2,0000.0,0009.41,0004.10,0003.40
2022-09-30 06:35:00,,0827.4,5.00,0.00,30.4,29.1,00.0,39.1,32.2,18.2,0000.0,0009.36,0004.13,0003.43
2022-09-30 06:36:00,,0827.4,4.99,0.00,30.4,29.2,00.0,39.1,32.2,18.2,0000.0,0009.44,0004.20,0003.46
2022-09-30 06:37:00,,0827.4,5.00,0.00,30.4,29.2,00.0,39.1,32.3,18.2,0000.0,0010.75,0004.22,0003.48
2022-09-30 06:38:00,,0827.3,5.01,0.00,30.4,29.2,00.0,39.1,32.3,18.2,0000.0,0011.84,0004.27,0003.49
2022-09-30 06:39:00,,0827.3,4.99,0.00,30.4,29.2,00.0,39.1,32.3,18.2,0000.0,0012.13,0004.27,0003.51
2022-09-30 06:40:00,,0827.3,5.01,0.00,30.4,29.2,00.0,39.1,32.3,18.1,0000.0,0013.52,0004.32,0003.54
2022-09-30 06:41:00,,0827.2,5.00,0.00,30.5,29.3,00.0,39.2,32.3,18.0,0000.0,0013.56,0004.33,0003.57
2022-09-30 06:42:00,,0827.3,4.99,0.00,30.5,29.3,00.0,39.2,32.3,18.0,0000.0,0013.72,0004.41,0003.59
2022-09-30 06:43:00,,0827.3,5.01,0.00,30.5,29.2,00.0,39.2,32.3,17.9,0000.0,0013.38,0004.39,0003.61
2022-09-30 06:44:00,,0827.2,5.00,0.00,30.5,29.2,00.0,39.2,32.4,17.7,0000.0,0013.06,0004.32,0003.60
2022-09-30 06:45:00,,0827.2,4.99,0.00,30.5,29.3,00.0,39.2,32.4,17.6,0000.0,0012.76,0004.27,0003.60
2022-09-30 06:46:00,,0827.2,5.01,0.00,30.5,29.3,00.0,39.2,32.4,17.6,0000.0,0012.86,0004.27,0003.60
2022-09-30 06:47:00,,0827.3,4.99,0.00,30.5,29.3,00.0,39.3,32.4,17.6,0000.0,0013.33,0004.23,0003.58
2022-09-30 06:48:00,,0827.2,5.01,0.00,30.6,29.3,00.0,39.3,32.4,17.6,0000.0,0012.44,0004.18,0003.57
2022-09-30 06:49:00,,0827.2,5.00,0.00,30.6,29.3,00.0,39.3,32.4,17.6,0000.0,0011.54,0004.16,0003.57
2022-09-30 06:50:00,,0827.4,4.99,0.00,30.6,29.3,00.0,39.3,32.4,17.5,0000.0,0011.51,0004.16,0003.57
2022-09-30 06:51:00,,0827.2,5.00,0.00,30.6,29.3,00.0,39.3,32.4,17.3,0000.0,0010.19,0004.11,0003.55
2022-09-30 06:52:00,,0827.2,5.01,0.00,30.6,29.4,00.0,39.3,32.4,17.2,0000.0,0009.91,0004.11,0003.53
2022-09-30 06:53:00,,0827.2,4.99,0.00,30.6,29.3,00.0,39.3,32.5,17.3,0000.0,0009.72,0004.07,0003.53
2022-09-30 06:54:00,,0827.2,5.01,0.00,30.6,29.3,00.0,39.3,32.5,17.2,0000.0,0009.71,0004.01,0003.51
2022-09-30 06:55:00,,0827.2,5.00,0.00,30.6,29.3,00.0,39.4,32.5,17.0,0000.0,0009.71,0004.01,0003.50
2022-09-30 06:56:00,,0827.2,5.00,0.00,30.6,29.3,00.0,39.4,32.5,16.6,0000.0,0009.26,0003.99,0003.48
2022-09-30 06:57:00,,0827.2,5.01,0.00,30.6,29.3,00.0,39.4,32.5,16.4,0000.0,0009.14,0003.94,0003.46
2022-09-30 06:58:00,,0827.2,5.00,0.00,30.6,29.3,00.0,39.4,32.5,16.4,0000.0,0008.63,0003.90,0003.43
2022-09-30 06:59:00,,0827.2,4.99,0.00,30.6,29.3,00.0,39.4,32.5,16.4,0000.0,0008.37,0003.86,0003.42
